Flag for Ireland Weather past 2 weeks in Galway, Ireland

Now
63 °F

Partly sunny.


Feels Like: 63 °F
Forecast: 56 / 63 °F
Wind: 15 mph from Southwest

Location: Shannon Airport

Current Time: Aug 27, 2014 at 8:44:42 PM

Latest Report: Aug 27, 2014 at 8:00 PM


Visibility: N/A

Pressure: 29.53 "Hg

Humidity: 77%

Dew point: 55 °F

Location of GalwayLocation

Historic Weather in Galway — Graph

°F

Galway temperature yesterday

Maximum temperature yesterday: 66 °F (at 3:00 PM)
Minimum temperature yesterday: 59 °F (at 12:00 AM)
Average temperature yesterday: 62 °F

Past Weeks' High & Low Weather Summary

 TemperatureHumidityPressure
High72 °F (Aug 25, 2:30 PM)100% (Aug 17, 12:00 AM)30.24 "Hg (Aug 17, 12:00 AM)
Low43 °F (Aug 23, 3:30 AM)40% (Aug 23, 4:00 PM)29.36 "Hg (Aug 25, 5:00 PM)
Average58 °F74%29.93 "Hg
* Reported Aug 12 7:00 PM — Aug 27 7:00 PM, Galway, Weather by CustomWeather, © 2014

Note: Actual official high and low records may vary slightly from our data, if they occured in-between our weather recording intervals... More about our weather records

Advertising

Galway weather history for previous 24 hours

 ConditionsComfort  
Time TempWeatherWind HumidityBarometerVisibility
7:00 PM
Aug 27
63 °FDrizzle. Partly sunny.17 mph88%29.47 "HgN/A
6:30 PM63 °FPartly sunny.23 mph83%29.47 "HgN/A
6:00 PM63 °FPartly sunny.23 mph83%29.47 "HgN/A
5:30 PM63 °FPartly sunny.21 mph83%29.47 "HgN/A
5:00 PM63 °FBroken clouds.24 mph88%29.47 "HgN/A
4:00 PM63 °FBroken clouds.23 mph83%29.50 "HgN/A
3:30 PM63 °FBroken clouds.21 mph88%29.53 "HgN/A
3:00 PM63 °FPartly sunny.20 mph77%29.56 "HgN/A
2:30 PM63 °FBroken clouds.21 mph83%29.56 "HgN/A
2:00 PM63 °FOvercast.22 mph83%29.56 "HgN/A
1:30 PM61 °FOvercast.20 mph88%29.59 "HgN/A
1:00 PM63 °FOvercast.18 mph83%29.62 "HgN/A
12:30 PM61 °FPartly sunny.15 mph88%29.62 "HgN/A
12:00 PM61 °FPartly sunny.15 mph88%29.65 "HgN/A
11:30 AM59 °FDrizzle. Partly sunny.15 mph94%29.68 "Hg2 mi
11:00 AM61 °FDrizzle. Partly sunny.16 mph88%29.68 "Hg4 mi
10:30 AM59 °FDrizzle. Broken clouds.16 mph94%29.71 "Hg2 mi
10:00 AM59 °FPartly sunny.16 mph88%29.71 "HgN/A
9:30 AM59 °FPartly sunny.17 mph88%29.71 "HgN/A
9:00 AM59 °FDrizzle. Broken clouds.16 mph88%29.74 "HgN/A
8:30 AM59 °FBroken clouds.15 mph88%29.74 "HgN/A
8:00 AM59 °FDrizzle. Partly sunny.14 mph88%29.77 "Hg3 mi
7:30 AM59 °FPassing clouds.13 mph88%29.77 "Hg4 mi
7:00 AM59 °FPassing clouds.15 mph88%29.77 "Hg4 mi
6:30 AM59 °FPassing clouds.13 mph77%29.77 "HgN/A
6:00 AM61 °FPartly cloudy.13 mph72%29.77 "HgN/A
5:30 AM61 °FPassing clouds.10 mph72%29.80 "HgN/A
5:00 AM61 °FPassing clouds.13 mph77%29.80 "HgN/A
4:30 AM61 °FPassing clouds.10 mph77%29.80 "HgN/A
4:00 AM61 °FPassing clouds.12 mph77%29.83 "HgN/A
3:30 AM61 °FPassing clouds.10 mph77%29.83 "HgN/A
3:00 AM61 °FPassing clouds.10 mph72%29.83 "HgN/A
2:30 AM61 °FPassing clouds.10 mph72%29.83 "HgN/A
2:00 AM61 °FPassing clouds.10 mph72%29.86 "HgN/A
1:30 AM61 °FPassing clouds.9 mph72%29.86 "HgN/A
1:00 AM61 °FPassing clouds.9 mph72%29.86 "HgN/A
12:30 AM61 °FPassing clouds.9 mph72%29.86 "HgN/A
12:00 AM61 °FPassing clouds.9 mph72%29.86 "HgN/A
11:30 PM
Aug 26
61 °FPassing clouds.10 mph77%29.86 "HgN/A
11:00 PM63 °FPartly cloudy.10 mph68%29.86 "HgN/A
10:30 PM63 °FPassing clouds.14 mph73%29.86 "HgN/A
10:00 PM63 °FPassing clouds.13 mph73%29.86 "HgN/A
9:30 PM63 °FPartly sunny.13 mph73%29.83 "HgN/A
9:00 PM63 °FPartly sunny.10 mph73%29.83 "HgN/A
8:30 PM63 °FPartly sunny.10 mph73%29.83 "HgN/A
8:00 PM64 °FPartly sunny.9 mph68%29.83 "HgN/A
Weather by CustomWeather, © 2014

See weather overviewHow to use our weather pages